Location: �perlecques
(50.8057°N, 2.1521°E)
Time: 02:09:17
(UTC+00:00)

Vanguard 1 Rocket - Pass Details

Date: 09 August 2021
Orbit: 650 x 4226 km, 34.3° (Epoch: 25 September)

Event Time Altitude Azimuth Distance (km) Brightness Sun altitude
Rises 06:47:23 0° 217° (SW) 8,381 12.0 20.1°
Reaches altitude 10° 06:54:06 10° 209° (SSW) 7,425 11.8 21.1°
Maximum altitude 07:14:58 34° 156° (SSE) 4,982 11.8 24.4°
Drops below altitude 10° 07:30:01 10° 99° (E) 5,450 13.2 26.8°
Sets 07:33:55 0° 91° (E) 6,020 12.8 27.4°
